Regional Weather Roundup
Issued by NWS Cleveland, OH

Home | Current Version | Previous Version | Graphics & Text | Print | Product List | Glossary On
Versions: 1 2 3 4 5 6 7 8 9 10 11 12 13 14 15 16 17 18 19 20 21 22 23 24 25 26 27 28 29 30 31 32 33 34 35 36 37 38 39 40 41 42 43 44 45 46 47 48 49 50
261
ASUS41 KCLE 092210
RWRCLE
OHIO REGIONAL WEATHER ROUNDUP
NATIONAL WEATHER SERVICE CLEVELAND, OH
500 PM EST FRI DEC 09 2016

NOTE: "FAIR" INDICATES FEW OR NO CLOUDS BELOW 12,000 FEET WITH NO
SIGNIFICANT WEATHER AND/OR OBSTRUCTIONS TO VISIBILITY.

OHZ001>008-015>018-024>027-034-035-043-044-092300-
   NORTHWEST OHIO

CITY           SKY/WX    TMP DP  RH WIND       PRES   REMARKS
DEFIANCE       CLOUDY    30  17  58 W7        30.44S WCI  23
FINDLAY        CLOUDY    28  19  69 W13       30.43S WCI  17
TOLEDO EXPRESS FLURRIES  29  22  75 W12       30.42R WCI  19
TOLEDO EXEC    LGT SNOW  30  24  78 W15       30.43R WCI  19
LIMA           CLOUDY    25  20  81 SW12      30.45S WCI  14
$$

OHZ009>014-019>023-028>033-038-089-092300-
   NORTHEAST OHIO

CITY           SKY/WX    TMP DP  RH WIND       PRES   REMARKS
CLE-HOPKINS    FLURRIES  28  21  75 SW14      30.42R WCI  17
CLE-LAKEFRONT  CLOUDY    29  23  78 SW10      30.39S WCI  20
CUY CO. ARPT   SNOW      28  27  93 SW13G22   30.37R VSB 1/4 WCI  18
LORAIN-ELYRIA  LGT SNOW  27  21  78 W10       30.42R WCI  17
ASHTABULA      LGT SNOW  28  21  75 W10G18    30.35R WCI  19
AKRON-CANTON   MOCLDY    26  18  71 W14       30.40R WCI  14
WOOSTER        CLOUDY    25  19  78 W12       30.42R WCI  14
MANSFIELD      CLOUDY    24  21  88 SW9       30.41R WCI  14
YOUNGSTOWN     CLOUDY    28  18  66 W14G21    30.35R WCI  17
$$

OHZ042-051>053-060>062-070>072-077>081-092300-
  SOUTHWEST OHIO

CITY           SKY/WX    TMP DP  RH WIND       PRES   REMARKS
CINC-COVINGTON CLOUDY    24  13  62 W7        30.52S WCI  16
CINC-LUNKEN    CLOUDY    26  16  65 SW9       30.56S WCI  17
HAMILTON       CLOUDY    27  16  63 W8        30.54R WCI  19
DAYTON         LGT SNOW  24  17  74 W13       30.49R WCI  12
WRIGHT-PAT AFB FLURRIES  26  19  75 W7        30.49R WCI  18
DAYTON GENERAL CLOUDY    26  16  65 W8        30.49R WCI  18
WILMINGTON     CLOUDY    25  15  66 SW13      30.49R WCI  14
$$

OHZ036-037-039>041-045>050-054>059-063>069-073>076-082>088-092300-
  CENTRAL AND SOUTHEAST OHIO

CITY           SKY/WX    TMP DP  RH WIND       PRES   REMARKS
COLUMBUS       LGT SNOW  26  20  77 W15       30.47R WCI  14
OSU AIRPORT    FLURRIES  26  19  74 W10       30.47R WCI  16
BOLTON FIELD   LGT SNOW  27  21  80 NW6       30.48R WCI  20
RICKENBACK AFB   N/A     28  18  66 W10       30.48S WCI  18
NEWARK         CLOUDY    27  19  72 W8        30.46R WCI  19
MARION         CLOUDY    26  20  77 W10G17    30.45R WCI  16
LANCASTER      CLOUDY    28  17  63 W12       30.48R WCI  18
ZANESVILLE     CLOUDY    27  19  72 W9        30.46R WCI  18
NEW PHILLY     NOT AVBL
$$




USA.gov is the U.S. government's official web portal to all federal, state and local government web resources and services.